Showing default

O3B FM10, 40348

Orbit data source: Space-Track

O3B FM10, 40348 is a payload satellite owned by O3B (JE) that was launched on Thu, 18 Dec 2014 UTC via a SOYUZ-ST-B launch vehicle from the French Guiana (FRGUI). Payload-class satellites include a variety of spacecraft equipped with specific instruments for various scientific and technological missions. These include communications satellites like Starlink; space stations such as the ISS; scientific satellites like the Hubble; Earth observation satellites from companies like Planet Labs, Umbra, and HawkEye 360; GPS; miniature CubeSats for education and research; and military/defense satellites.

Loading next visibility...
Identifier
40348, 2014-083A
Orbit
Active
Last TLE update
17 hours ago
Origin
Manufacturer
Thales Alenia
Mission
Operational Commercial Communications
Bus & Motor
PRISMA?, LS-400 AOCS?
Mass
700 kg wet, ~500 kg dry
Launch date (UTC)
2014-12-18 (11 years ago)
Launch vehicle
SOYUZ-ST-B
Launch site
French Guiana (FRGUI)
Object type
Payload
Rocket body
Debris
Shape & HBR
Trap Box + 2 Pan, 12 m
Radar Cross Section
21.980 m², Large (>1 m²)

Expand to show TLE details & history

TLE from 17 hours ago
0 O3B FM10
1 40348U 14083A   25181.55157414 -.00000025  00000-0  00000-0 0  9992
2 40348   0.0561   9.3029 0002458 140.3035 210.4050  5.00114975192298
Epoch: 2025-06-30T13:14Z
TLE epoch observation values (Epoch: 2025-06-30T13:14:16.005Z)
Latitude
-0.01049°
Longitude
-117.42642°
Altitude
8,067.443 km
Speed
5.253 km/s
True Right ascension
00h 00m 00s
True Declination
0° 00' 38"
Sunlit
Object was in daylight at epoch
Visualization orbit readout
Latitude
-0.03208°
Longitude
104.34927°
Altitude
8,063.277 km
Speed
5.255 km/s
Apparent Right ascension
13h 32m 43s
Apparent Declination
-18° 45' 02"
Sunlit
Object is in daylight
Visualization observer readout
Local Sidereal Time
18:12:54
Azimuth
242.978° WSW
Elevation
2.386°
Doppler factor
1
Orbital elements
Apogee altitude
8,072.51 km
Perigee altitude
8,065.408 km
Semi-major axis
14,447.096 km
Eccentricity
0.00025
Inclination
0.0561°
RAAN
9.3029°
Arg. of periapsis
140.3035°
True anomaly
Unknown
Mean anomaly
210.405°
Eccentric anomaly
Unknown
Mean motion
1.24989 °/min
Orbital period
288.02 mins
BSTAR
0
Loading maneuver chart data...
Loading SW <> Apogee altitude chart data...
Loading historical data...
Loading historical data...
Loading historical data...
Loading historical data...
Loading historical data...
Loading historical data...
Loading historical data...
Other satellites on launch #83 in the year 2014 (2014-12-18 UTC)

O3B FM10 Visibility forecast

Observer location: undefined°, undefined°

Span
Click to sort rows by Start time (UTC) header in descending order
Start Az.
Max El. time (UTC)
Max El. Az.
Max El.
End time (UTC)
End Az.
79 mins2025-07-01 06:47:05.164Z232.06° WSW2025-07-01 07:26:05.164Z180.712° SSW24.316°2025-07-01 08:06:05.164Z127.861° SE
78 mins2025-07-01 12:48:05.164Z231.095° WSW2025-07-01 13:27:05.164Z179.217° S24.379°2025-07-01 14:06:05.164Z127.824° SE
78 mins2025-07-01 18:48:05.164Z231.188° WSW2025-07-01 19:27:05.164Z179.215° S24.42°2025-07-01 20:06:05.164Z127.807° SE
78 mins2025-07-02 00:48:05.164Z231.157° WSW2025-07-02 01:26:05.164Z180.715° SSW24.357°2025-07-02 02:06:05.164Z127.846° SE
|